Time,TemperatureF,DewpointF,PressureIn,WindDirection,WindDirectionDegrees,WindSpeedMPH,WindSpeedGustMPH,Humidity,HourlyPrecipIn,Conditions,Clouds,dailyrainin,SolarRadiationWatts/m^2,SoftwareType,DateUTC
2017-05-26 00:10:00,57.0,50.0,29.91,SSW,198,4.0,6.0,77,0.00,,,0.00,0,weatherlink.com 1.10,2017-05-26 07:10:00,
2017-05-26 00:25:00,57.0,50.0,29.91,SSW,198,2.0,7.0,78,0.00,,,0.00,0,weatherlink.com 1.10,2017-05-26 07:25:00,
2017-05-26 00:40:00,56.0,51.0,29.91,South,180,1.0,5.0,82,0.00,,,0.00,0,weatherlink.com 1.10,2017-05-26 07:40:00,
2017-05-26 00:55:00,55.0,50.0,29.91,SSE,165,0.0,3.0,84,0.00,,,0.00,0,weatherlink.com 1.10,2017-05-26 07:55:00,
2017-05-26 01:11:00,53.3,49.0,29.92,SSE,165,0.0,0.0,86,0.00,,,0.00,0,weatherlink.com 1.10,2017-05-26 08:11:00,
2017-05-26 01:26:00,52.6,49.0,29.92,SSE,165,0.0,0.0,87,0.00,,,0.00,0,weatherlink.com 1.10,2017-05-26 08:26:00,
2017-05-26 01:41:00,52.3,48.0,29.93,SSE,165,0.0,0.0,86,0.00,,,0.00,0,weatherlink.com 1.10,2017-05-26 08:41:00,
2017-05-26 01:56:00,52.5,48.0,29.93,SSE,165,0.0,0.0,85,0.00,,,0.00,0,weatherlink.com 1.10,2017-05-26 08:56:00,
2017-05-26 02:11:00,53.0,48.0,29.93,SSE,165,0.0,0.0,84,0.00,,,0.00,0,weatherlink.com 1.10,2017-05-26 09:11:00,
2017-05-26 02:26:00,52.9,48.0,29.93,SSE,165,0.0,0.0,83,0.00,,,0.00,0,weatherlink.com 1.10,2017-05-26 09:26:00,
2017-05-26 02:41:00,52.8,48.0,29.93,SSE,165,0.0,0.0,83,0.00,,,0.00,0,weatherlink.com 1.10,2017-05-26 09:41:00,
2017-05-26 02:56:00,53.0,48.0,29.93,SSE,165,0.0,0.0,82,0.00,,,0.00,0,weatherlink.com 1.10,2017-05-26 09:56:00,
2017-05-26 03:11:00,53.2,48.0,29.94,SSE,165,0.0,0.0,82,0.00,,,0.00,0,weatherlink.com 1.10,2017-05-26 10:11:00,
2017-05-26 03:26:00,53.5,48.0,29.94,SSE,165,0.0,0.0,80,0.00,,,0.00,0,weatherlink.com 1.10,2017-05-26 10:26:00,
2017-05-26 03:41:00,53.9,48.0,29.94,SSE,165,0.0,0.0,80,0.00,,,0.00,0,weatherlink.com 1.10,2017-05-26 10:41:00,
2017-05-26 03:56:00,53.9,48.0,29.94,SSE,165,0.0,0.0,79,0.00,,,0.00,0,weatherlink.com 1.10,2017-05-26 10:56:00,
2017-05-26 04:11:00,53.1,47.0,29.94,SSE,165,0.0,0.0,80,0.00,,,0.00,0,weatherlink.com 1.10,2017-05-26 11:11:00,
2017-05-26 04:26:00,52.5,48.0,29.94,SSE,165,0.0,0.0,83,0.00,,,0.00,0,weatherlink.com 1.10,2017-05-26 11:26:00,
2017-05-26 04:42:00,52.6,48.0,29.94,SSE,165,0.0,0.0,84,0.00,,,0.00,0,weatherlink.com 1.10,2017-05-26 11:42:00,
2017-05-26 04:56:00,52.4,48.0,29.95,SSE,165,0.0,0.0,84,0.00,,,0.00,0,weatherlink.com 1.10,2017-05-26 11:56:00,
2017-05-26 05:11:00,51.9,47.0,29.95,NW,309,0.0,0.0,84,0.00,,,0.00,0,weatherlink.com 1.10,2017-05-26 12:11:00,
2017-05-26 05:26:00,52.5,48.0,29.95,North,355,0.0,0.0,85,0.00,,,0.00,9,weatherlink.com 1.10,2017-05-26 12:26:00,
2017-05-26 05:41:00,53.4,48.0,29.95,NE,37,0.0,1.0,83,0.00,,,0.00,16,weatherlink.com 1.10,2017-05-26 12:41:00,
2017-05-26 05:56:00,54.0,49.0,29.95,ENE,66,0.0,0.0,82,0.00,,,0.00,25,weatherlink.com 1.10,2017-05-26 12:56:00,
2017-05-26 06:11:00,54.4,49.0,29.96,North,350,0.0,1.0,81,0.00,,,0.00,30,weatherlink.com 1.10,2017-05-26 13:11:00,
2017-05-26 06:26:00,54.7,49.0,29.95,ENE,72,0.0,0.0,80,0.00,,,0.00,56,weatherlink.com 1.10,2017-05-26 13:26:00,
2017-05-26 06:41:00,55.0,49.0,29.97,NE,48,0.0,3.0,81,0.00,,,0.00,86,weatherlink.com 1.10,2017-05-26 13:41:00,
2017-05-26 06:56:00,55.0,50.0,29.97,ENE,63,3.0,3.0,82,0.00,,,0.00,120,weatherlink.com 1.10,2017-05-26 13:56:00,
2017-05-26 07:12:00,55.1,50.0,29.97,NE,39,0.0,3.0,83,0.00,,,0.00,185,weatherlink.com 1.10,2017-05-26 14:12:00,
2017-05-26 07:26:00,55.7,50.0,29.98,ENE,63,0.0,4.0,82,0.00,,,0.00,227,weatherlink.com 1.10,2017-05-26 14:26:00,
2017-05-26 07:42:00,56.2,50.0,29.98,NE,38,3.0,3.0,80,0.00,,,0.00,195,weatherlink.com 1.10,2017-05-26 14:42:00,
2017-05-26 07:57:00,56.7,50.0,29.98,SE,142,1.0,2.0,79,0.00,,,0.00,262,weatherlink.com 1.10,2017-05-26 14:57:00,
2017-05-26 08:11:00,57.3,51.0,29.99,NE,34,0.0,4.0,79,0.00,,,0.00,258,weatherlink.com 1.10,2017-05-26 15:11:00,
2017-05-26 08:27:00,57.8,51.0,29.98,NNE,17,1.0,4.0,78,0.00,,,0.00,294,weatherlink.com 1.10,2017-05-26 15:27:00,
2017-05-26 08:43:00,58.6,51.0,29.99,ENE,76,0.0,4.0,77,0.00,,,0.00,336,weatherlink.com 1.10,2017-05-26 15:43:00,
2017-05-26 08:57:00,59.7,52.0,29.99,NNW,344,0.0,4.0,75,0.00,,,0.00,401,weatherlink.com 1.10,2017-05-26 15:57:00,
2017-05-26 09:13:00,60.0,52.0,29.99,NE,39,5.0,7.0,74,0.00,,,0.00,489,weatherlink.com 1.10,2017-05-26 16:13:00,
2017-05-26 09:30:00,60.7,52.0,29.99,WSW,246,1.0,5.0,74,0.00,,,0.00,555,weatherlink.com 1.10,2017-05-26 16:30:00,
2017-05-26 09:42:00,61.6,53.0,29.99,ENE,76,1.0,3.0,74,0.00,,,0.00,599,weatherlink.com 1.10,2017-05-26 16:42:00,
2017-05-26 09:57:00,62.1,53.0,29.99,NNW,338,0.0,6.0,72,0.00,,,0.00,654,weatherlink.com 1.10,2017-05-26 16:57:00,
2017-05-26 10:12:00,63.1,54.0,29.99,East,84,0.0,4.0,72,0.00,,,0.00,703,weatherlink.com 1.10,2017-05-26 17:12:00,
2017-05-26 10:27:00,63.7,54.0,29.99,NE,40,1.0,3.0,70,0.00,,,0.00,740,weatherlink.com 1.10,2017-05-26 17:27:00,
2017-05-26 10:42:00,64.7,55.0,29.99,SE,138,0.0,3.0,71,0.00,,,0.00,770,weatherlink.com 1.10,2017-05-26 17:42:00,
2017-05-26 10:57:00,65.4,55.0,29.99,NNE,32,0.0,4.0,69,0.00,,,0.00,800,weatherlink.com 1.10,2017-05-26 17:57:00,
2017-05-26 11:12:00,65.5,55.0,29.99,ENE,61,2.0,6.0,68,0.00,,,0.00,821,weatherlink.com 1.10,2017-05-26 18:12:00,
2017-05-26 11:27:00,66.6,57.0,29.99,East,88,0.0,2.0,70,0.00,,,0.00,828,weatherlink.com 1.10,2017-05-26 18:27:00,
2017-05-26 11:42:00,64.4,54.0,29.99,WSW,237,7.0,9.0,69,0.00,,,0.00,807,weatherlink.com 1.10,2017-05-26 18:42:00,
2017-05-26 11:57:00,64.3,54.0,29.99,WSW,240,5.0,9.0,70,0.00,,,0.00,780,weatherlink.com 1.10,2017-05-26 18:57:00,
2017-05-26 12:12:00,64.2,54.0,29.99,WSW,251,4.0,8.0,70,0.00,,,0.00,758,weatherlink.com 1.10,2017-05-26 19:12:00,
2017-05-26 12:27:00,65.3,55.0,30.00,WSW,238,3.0,9.0,69,0.00,,,0.00,744,weatherlink.com 1.10,2017-05-26 19:27:00,
2017-05-26 12:42:00,65.7,55.0,29.99,WSW,238,8.0,10.0,68,0.00,,,0.00,652,weatherlink.com 1.10,2017-05-26 19:42:00,
2017-05-26 12:58:00,66.1,55.0,29.99,WSW,254,4.0,8.0,68,0.00,,,0.00,640,weatherlink.com 1.10,2017-05-26 19:58:00,
2017-05-26 13:14:00,66.8,55.0,29.99,WSW,242,4.0,8.0,65,0.00,,,0.00,833,weatherlink.com 1.10,2017-05-26 20:14:00,
2017-05-26 13:28:00,67.7,54.0,29.99,West,276,6.0,9.0,61,0.00,,,0.00,893,weatherlink.com 1.10,2017-05-26 20:28:00,
2017-05-26 13:43:00,67.9,55.0,29.98,WSW,239,3.0,7.0,63,0.00,,,0.00,773,weatherlink.com 1.10,2017-05-26 20:43:00,
2017-05-26 13:59:00,68.6,54.0,29.99,SW,223,6.0,7.0,61,0.00,,,0.00,833,weatherlink.com 1.10,2017-05-26 20:59:00,
2017-05-26 14:13:00,68.8,53.0,29.99,West,269,3.0,7.0,58,0.00,,,0.00,914,weatherlink.com 1.10,2017-05-26 21:13:00,
2017-05-26 14:29:00,69.3,54.0,29.98,SW,230,4.0,6.0,58,0.00,,,0.00,904,weatherlink.com 1.10,2017-05-26 21:29:00,